Weather in Malopeschanka

Russia / Kemerovo Oblast     56°25′52″N   87°07′14″E
temp.,
°C
wind,
m/s
gust,
m/s
humid.,
%
clouds,
%
prec.,
mm/h
press.,
hPa
HPBL,
m
27 november, sat
sat2701:00−16sw6149051 0.1 1034396
04:00−16ssw61491100 0.0 1034379
07:00−15ssw61688100 0.0 1034465
10:00−12ssw71687100 0.0 1032810
13:00−10sw81486100 0.1 1032903
16:00−9ssw71491100 0.2 1031855
19:00−9ssw81691100 0.6 1029835
22:00−7ssw81791100 0.5 1026970
28 november, sun
sun2801:00−6sw91792100 1.3 10231049
04:00−6sw81593100 1.7 10221046
07:00−6wsw71591100 2.6 1022809
10:00−6wsw7148899 0.2 1024655
13:00−5wsw71489100 0.2 1025669
16:00−5wsw71489100 0.1 1027690
19:00−6sw7158996 0.1 1029531
22:00−6wsw7158991 0.1 1030546
29 november, mon
mon2901:00−7wsw6139187 0.1 1032457
04:00−7sw51292100 0.1 1033438
07:00−8sw51192100 0.1 1034352
10:00−8sw6139199 0.0 1034419
13:00−7sw61490100 0.1 1033479
16:00−7sw61488100 0.0 1031465
19:00−8sw61587100 0.0 1030415
22:00−7sw61585100 0.0 1029427
30 november, tue
tue3001:00−7sw71682100 0.0 1028444
04:00−7sw71677100 0.0 1026442
07:00−7sw71778100 0.0 1025462
10:00−8sw71778100 0.0 1025457
13:00−6sw7167899 0.0 1024532
16:00−6sw81777100 0.0 1024518
19:00−6sw81683100 0.0 1024510
22:00−6sw71687100 0.1 1025475
1 december, wed
wed101:00−6wsw61491100 0.1 1026470
04:00−7sw5119391 0.1 1027303
07:00−7sw51094100 0.2 1029329
10:00−7sw4993100 0.1 1029288
13:00−7ssw41184100 0.1 1029324
16:00−8ssw4108396 0.0 1028263
19:00−8ssw41383100 0.0 1026300
22:00−6ssw5157892 0.0 1024382